Current Weather Conditions: station 62153

sailwx.info

Wind from 190 at 14 knots

Wave height 0.9 meters (2 feet), 4 second period

Visibility: greater than 10.8 NM

Last reported at 2019-Aug-24 08:00 UTC.
Time now 2019-Aug-24 09:59 UTC

Location: N 57°18' E 002°00'.
View on Google Maps.

See reports from other nearby stations

  
Tides and Currents Weather Stations Pressure Air Temp Water Temp Dewpoint Dewpoint Depression Visibility Wind Speed Wind Dir Waves Ship Positions
date/time (UTC)wind fromknots sea level pressurealtimeterstation pressurevisibilityair tempwater tempwave heightnotes
2019-Aug-24 08:00 190 14 10.8 0.9
2019-Aug-24 07:00 190 13 10.8 0.8
2019-Aug-24 06:00 180 18 10.8 0.8
2019-Aug-24 05:00 180 15 10.8 0.8
2019-Aug-24 04:00 170 13 10.8 0.8
2019-Aug-24 03:00 180 14 10.8 0.8
2019-Aug-24 02:00 170 9 10.8 0.8
2019-Aug-24 01:00 190 12 10.8 0.9
2019-Aug-24 00:00 190 11 10.8 1.0
2019-Aug-23 23:00 190 11 10.8 1.0
2019-Aug-23 22:00 190 11 5.4 1.1
2019-Aug-23 21:00 200 13 10.8 1.2
2019-Aug-23 20:00 200 12 10.8 1.2
2019-Aug-23 19:00 210 13 10.8 1.3
2019-Aug-23 18:00 200 6 10.8 1.4
2019-Aug-23 17:00 230 11 10.8 1.4
2019-Aug-23 16:00 230 14 10.8 1.4
2019-Aug-23 15:00 230 17 10.8 1.6
2019-Aug-23 14:00 240 12 10.8 1.7
2019-Aug-23 13:00 240 15 10.8 1.6
2019-Aug-23 12:00 230 17 10.8 1.7
2019-Aug-23 11:00 240 15 10.8 1.7
2019-Aug-23 10:00 240 13 10.8 1.7
2019-Aug-23 09:00 240 14 10.8 1.9
2019-Aug-23 08:00 240 12 10.8 1.9
2019-Aug-23 07:00 250 11 10.8 1.8
2019-Aug-23 06:00 250 7 10.8 2.0
2019-Aug-23 05:00 250 8 10.8 2.0
2019-Aug-23 04:00 250 9 10.8 2.0
2019-Aug-23 03:00 260 12 10.8 1.7
2019-Aug-23 02:00 250 9 10.8 1.8
2019-Aug-23 01:00 240 13 10.8 1.8
2019-Aug-23 00:00 230 20 10.8 1.9
2019-Aug-22 23:00 230 20 10.8 1.9
2019-Aug-22 22:00 220 24 5.4 2.0
2019-Aug-22 21:00 210 20 10.8 2.0
2019-Aug-22 20:00 210 21 10.8 1.8
2019-Aug-22 19:00 210 20 10.8 1.6
2019-Aug-22 18:00 200 15 10.8 1.7
2019-Aug-22 17:00 210 19 10.8 1.8
2019-Aug-22 16:00 210 20 10.8 1.7
2019-Aug-22 15:00 210 19 10.8 1.7
2019-Aug-22 14:00 220 20 10.8 1.8
2019-Aug-22 13:00 220 20 10.8 1.8
2019-Aug-22 12:00 220 19 10.8 1.8
2019-Aug-22 11:00 220 17 10.8 1.8
2019-Aug-22 10:00 230 14 10.8 2.0
2019-Aug-22 09:00 250 9 10.8 2.1